Flag for U.S.A. Weather past 2 weeks in Lexington, North Carolina, U.S.A.

58 °F


Feels Like: 58 °F
Forecast: 58 / 77 °F
Wind: No wind

Location: Davidson County Airport

Current Time: Oct 9, 2015 at 5:08:56 AM

Latest Report: Oct 9, 2015 at 4:35 AM

Visibility: 4 mi

Pressure: 30.10 "Hg

Humidity: 98%

Dew point: 58 °F

Location of LexingtonLocation

Historic Weather in Lexington — Graph


Lexington temperature yesterday

Maximum temperature yesterday: 79 °F (at 3:35 PM)
Minimum temperature yesterday: 53 °F (at 7:35 AM)
Average temperature yesterday: 65 °F

Past Weeks' High & Low Weather Summary

High83 °F (Sep 30, 2:55 PM)99% (Sep 29, 12:35 AM)30.22 "Hg (Sep 29, 12:35 AM)
Low48 °F (Oct 6, 6:35 AM)37% (Sep 24, 2:55 PM)29.77 "Hg (Sep 30, 5:35 AM)
Average63 °F88%30.01 "Hg
* Reported Sep 24 3:15 AM — Oct 9 3:55 AM, Lexington, Weather by CustomWeather, © 2015

Note: Actual official high and low records may vary slightly from our data, if they occured in-between our weather recording intervals... More about our weather records


Lexington weather history for previous 24 hours

Time TempWeatherWind HumidityBarometerVisibility
3:55 AM
Fri, Oct 9
58 °FFog.No wind99%30.11 "Hg3 mi
3:35 AM58 °FFog.No wind98%30.11 "Hg5 mi
3:15 AM58 °FClear.No wind98%30.11 "Hg10 mi
2:55 AM58 °FFog.No wind98%30.11 "Hg5 mi
2:35 AM58 °FClear.No wind98%30.11 "Hg7 mi
2:15 AM60 °FClear.No wind97%30.11 "Hg10 mi
1:55 AM61 °FClear.No wind97%30.11 "Hg10 mi
1:35 AM60 °FClear.No wind97%30.11 "Hg10 mi
1:15 AM60 °FClear.No wind98%30.11 "Hg10 mi
12:55 AM60 °FClear.No wind98%30.12 "Hg10 mi
12:15 AM61 °FClear.No wind96%30.12 "Hg10 mi
11:55 PM
Thu, Oct 8
61 °FClear.No wind95%30.12 "Hg10 mi
11:35 PM61 °FClear.No wind94%30.13 "Hg10 mi
10:55 PM62 °FClear.No wind95%30.13 "Hg10 mi
10:35 PM61 °FPassing clouds.No wind95%30.12 "Hg10 mi
10:15 PM63 °FPassing clouds.No wind92%30.12 "Hg10 mi
9:55 PM64 °FClear.No wind91%30.12 "Hg10 mi
9:35 PM64 °FClear.No wind92%30.12 "Hg10 mi
9:15 PM64 °FClear.No wind92%30.11 "Hg10 mi
8:55 PM64 °FClear.No wind89%30.11 "Hg10 mi
8:35 PM65 °FClear.No wind90%30.11 "Hg10 mi
8:15 PM66 °FClear.No wind86%30.11 "Hg10 mi
7:55 PM66 °FClear.No wind85%30.11 "Hg10 mi
7:15 PM68 °FSunny.No wind82%30.10 "Hg10 mi
6:55 PM72 °FSunny.No wind70%30.10 "Hg10 mi
6:35 PM71 °FSunny.No wind73%30.09 "Hg10 mi
5:15 PM78 °FSunny.5 mph55%30.09 "Hg10 mi
4:55 PM78 °FScattered clouds.5 mph54%30.10 "Hg10 mi
4:35 PM79 °FBroken clouds.5 mph55%30.10 "Hg10 mi
4:15 PM78 °FScattered clouds.5 mph57%30.10 "Hg10 mi
3:55 PM78 °FScattered clouds.5 mph56%30.10 "Hg10 mi
3:35 PM79 °FScattered clouds.5 mph55%30.10 "Hg10 mi
3:15 PM78 °FScattered clouds.7 mph54%30.10 "Hg10 mi
2:55 PM78 °FScattered clouds.5 mph55%30.11 "Hg10 mi
2:15 PM78 °FScattered clouds.5 mph56%30.12 "Hg10 mi
1:55 PM76 °FPartly sunny.3 mph58%30.13 "Hg10 mi
1:15 PM78 °FScattered clouds.No wind56%30.14 "Hg10 mi
12:55 PM77 °FPartly sunny.No wind58%30.15 "Hg10 mi
12:35 PM76 °FPartly sunny.No wind61%30.16 "Hg10 mi
12:15 PM76 °FSunny.3 mph60%30.16 "Hg10 mi
11:55 AM75 °FSunny.5 mph62%30.16 "Hg10 mi
11:35 AM74 °FSunny.3 mph63%30.16 "Hg10 mi
11:15 AM73 °FSunny.No wind66%30.16 "Hg10 mi
10:55 AM72 °FSunny.No wind69%30.16 "Hg10 mi
10:35 AM70 °FSunny.No wind72%30.16 "Hg10 mi
10:15 AM69 °FSunny.No wind74%30.16 "Hg10 mi
9:55 AM67 °FSunny.No wind79%30.16 "Hg10 mi
9:35 AM65 °FSunny.No wind86%30.16 "Hg10 mi
9:15 AM62 °FSunny.No wind90%30.15 "Hg10 mi
8:55 AM60 °FSunny.No wind94%30.15 "Hg10 mi
8:35 AM57 °FSunny.No wind98%30.14 "Hg10 mi
8:15 AM56 °FClear.No wind99%30.14 "Hg10 mi
7:55 AM54 °FClear.No wind99%30.13 "Hg10 mi
7:35 AM53 °FClear.No wind99%30.13 "Hg10 mi
7:15 AM53 °FClear.No wind99%30.13 "Hg10 mi
6:55 AM53 °FClear.No wind99%30.13 "Hg10 mi
6:35 AM54 °FClear.No wind99%30.12 "Hg10 mi
6:15 AM54 °FClear.No wind99%30.12 "Hg10 mi
5:55 AM53 °FClear.No wind99%30.11 "Hg7 mi
5:35 AM54 °FClear.No wind99%30.10 "Hg10 mi
5:15 AM54 °FClear.No wind99%30.10 "Hg10 mi
Weather by CustomWeather, © 2015

See weather overviewHow to use our weather pages